Bodensee (Kressbronn): 6,7°C  -  Teich der Wetterzentrale Bad Schussenried: 6,1°C |  Schneehöhe Kreuzthal-Steinberg (930 m ü. NN): 8 cm   
01.04.2020Höhe
ü. NN
ZeitTemperatur (°C)Nieder-
schlag
Luft-
feuchte
Luft-
druck
Wind
StationaktuellMinimumMaximumaktuellMaximum
Aldingen654 m04:36-2,7-2,7 (07:35)-0,3 (16:02)0,0 l/m²75%1023,91,9 km/h (1 Bft) O29,6 km/h (5 Bft) W (14:48)
Allmendingen541 m04:35-5,5-5,5 (07:35)-2,1 (15:10)0,0 l/m²86%1023,60,0 km/h (0 Bft) O-NO35,4 km/h (5 Bft) O (15:35)
Altshausen574 m04:30-2,9-2,9 (04:30)-1,1 (00:16)0,0 l/m²63%1021,53,2 km/h (1 Bft) N-NO8,0 km/h (2 Bft) N-NO (01:07)
Amstetten-Reutti663 m04:35-4,1-4,1 (05:15)-1,5 (16:55)0,0 l/m²83%1023,56,4 km/h (2 Bft) O-NO48,3 km/h (6 Bft) W (15:55)
Amtzell-Grenis677 m04:35-2,9-3,1 (03:35)-1,4 (00:00)0,0 l/m²60%1023,36,4 km/h (2 Bft) W-SW6,4 km/h (2 Bft) W-SW (00:00)
Aulendorf570 m04:35-2,1-2,1 (04:27)-0,5 (00:00)0,0 l/m²69%1022,26,4 km/h (2 Bft) NO11,3 km/h (2 Bft) NO (02:20)
Bad Krozingen233 m04:35-0,9-0,9 (07:30)3,7 (16:05)0,0 l/m²73%1023,21,7 km/h (1 Bft) S38,1 km/h (5 Bft) N (17:05)
Bad Saulgau595 m04:35-4,2-4,2 (06:45)-1,9 (15:00)0,0 l/m²83%1022,10,0 km/h (0 Bft) S-SO25,7 km/h (4 Bft) S (11:35)
Bad Saulgau, Mannsgrab588 m04:33-4,0-4,3 (03:44)-1,7 (00:17)0,0 l/m²83%1024,60,0 km/h (0 Bft) N-NW0,0 km/h (0 Bft) N (00:00)
Bad Saulgau-Lampertsweiler627 m04:35-1,8-1,8 (04:30)0,2 (00:00)0,0 l/m²73%1025,220,9 km/h (4 Bft) N-NW22,5 km/h (4 Bft) N-NW (01:15)
Bad Schussenried572 m04:35-3,2-3,2 (04:20)-1,1 (00:00)0,0 l/m²85%1021,70,0 km/h (0 Bft) NO9,7 km/h (2 Bft) NO (03:15)
Bergatreute615 m01:45-0,7-0,7 (00:45)0,0 (00:00)0,0 l/m²77%1023,512,9 km/h (3 Bft) NO16,1 km/h (3 Bft) O-NO (01:40)
Biberach (Riss), Boehringer533 m04:40-3,5-3,6 (04:40)-1,1 (00:30)0,0 l/m²86%1022,46,1 km/h (2 Bft) N-NW11,9 km/h (3 Bft) N (03:00)
Biberach (Riss), Realschule553 m04:40-3,4-3,4 (04:35)-0,3 (00:00)0,0 l/m²85%1024,16,4 km/h (2 Bft) N-NW11,3 km/h (2 Bft) N-NO (03:35)
Burgrieden523 m04:35-3,1-3,1 (04:35)-0,4 (00:00)0,0 l/m²79%1023,30,0 km/h (0 Bft) NO4,8 km/h (1 Bft) O-NO (02:50)
Burgrieden-Hochstetten510 m04:35-3,2-3,4 (06:50)-0,9 (15:40)0,0 l/m²87%1023,76,4 km/h (2 Bft) N-NO25,7 km/h (4 Bft) NO (12:55)
Ebersbach579 m04:35-2,3-2,3 (04:35)-0,1 (00:00)0,0 l/m²80%1023,64,8 km/h (1 Bft) N16,1 km/h (3 Bft) NO (01:25)
Ebersbach-Boos605 m04:35-3,2-3,2 (04:35)-0,1 (00:00)0,0 l/m²83%1023,412,9 km/h (3 Bft) O-NO22,5 km/h (4 Bft) O (01:00)
Ebersbach-Menzenweiler661 m04:35-2,8-2,8 (04:25)-0,6 (00:00)0,0 l/m²83%1023,419,3 km/h (3 Bft) NO24,1 km/h (4 Bft) O-NO (01:05)
Ehingen535 m01:10-2,5-2,5 (01:10)-1,3 (00:05)0,0 l/m²70%1025,40,0 km/h (0 Bft) N-NO5,0 km/h (1 Bft) N-NO (00:15)
Erlenmoos645 m04:35-2,6-2,6 (04:15)-0,9 (00:00)0,0 l/m²85%1023,211,3 km/h (2 Bft) O-NO12,9 km/h (3 Bft) O-NO (01:35)
Ertingen569 m04:35-2,7-2,7 (02:50)-0,6 (00:00)0,0 l/m²83%1023,211,3 km/h (2 Bft) N16,1 km/h (3 Bft) N-NO (04:10)
Friedrichshafen405 m04:35-0,8-0,8 (06:45)0,9 (13:30)0,0 l/m²74%1023,112,9 km/h (3 Bft) N27,4 km/h (4 Bft) NO (15:10)
Günzburg443 m04:35-4,0-4,0 (04:35)-1,1 (00:00)0,0 l/m²85%1021,50,0 km/h (0 Bft) NO0,0 km/h (0 Bft) NO (00:00)
Hochdorf-Appendorf537 m04:35-3,9-4,4 (03:40)-1,7 (00:15)0,0 l/m²64%1023,04,8 km/h (1 Bft) N-NW14,5 km/h (3 Bft) N-NW (03:20)
Höchsten802 m04:35-2,8-3,2 (04:20)-1,4 (00:00)0,0 l/m²77%1021,020,9 km/h (4 Bft) NO25,7 km/h (4 Bft) NO (02:45)
Horgenzell618 m04:35-1,9-1,9 (03:45)-0,6 (00:05)0,0 l/m²76%1020,84,8 km/h (1 Bft) N-NO19,3 km/h (3 Bft) N-NO (00:50)
Hoßkirch632 m04:35-4,8-4,8 (04:25)-1,0 (00:15)0,0 l/m²85%1022,13,2 km/h (1 Bft) O14,5 km/h (3 Bft) O-NO (00:20)
Isny, Am Dreifingerbach695 m04:35-2,7-2,9 (02:30)0,1 (01:00)0,0 l/m²75%1021,90,0 km/h (0 Bft) W14,5 km/h (3 Bft) O-NO (01:05)
Isny, Weidachweg706 m04:35-1,8-1,8 (04:30)0,3 (00:25)0,0 l/m²66%1024,16,4 km/h (2 Bft) W12,9 km/h (3 Bft) W (00:10)
Kappel-Grafenhausen163 m04:300,30,3 (06:55)3,3 (14:55)0,0 l/m²69%1021,48,0 km/h (2 Bft) N-NO30,6 km/h (5 Bft) N-NO (16:55)
Kißlegg-Staibshof709 m04:35-2,6-2,6 (04:35)-0,9 (00:00)0,0 l/m²81%1022,96,4 km/h (2 Bft) O-NO14,5 km/h (3 Bft) O (01:50)
Kressbronn398 m04:38-0,8-0,8 (04:38)1,4 (00:00)0,0 l/m²70%1021,66,4 km/h (2 Bft) O-NO22,5 km/h (4 Bft) O-NO (00:54)
Kreuzthal-Steinberg-Alpe930 m04:30-4,3-4,8 (04:00)-2,5 (00:00)0,0 l/m²89%1023,00,7 km/h (0 Bft) SO22,0 km/h (4 Bft) W-NW (00:10)
Kreuzthal-Steinberggipfel1040 m04:30-3,6-4,0 (02:20)-3,1 (00:10)-78%1023,015,5 km/h (3 Bft) O-NO37,1 km/h (5 Bft) O-SO (00:10)
Kristberg im Montafon (AT)1425 m04:35-6,1-6,1 (04:30)-5,3 (00:40)0,0 l/m²65%1026,30,0 km/h (0 Bft) O-SO10,1 km/h (2 Bft) NO (01:47)
Laupheim500 m04:35-2,8-2,8 (03:10)0,0 (00:00)0,0 l/m²80%1022,73,2 km/h (1 Bft) O-NO9,7 km/h (2 Bft) O-SO (00:20)
Leutkirch-Heggelbach670 m04:35-4,1-4,1 (04:30)-2,6 (00:30)0,0 l/m²84%1022,20,0 km/h (0 Bft) NO8,0 km/h (2 Bft) N-NO (03:30)
Lindau-Insel420 m04:35-0,6-0,6 (07:25)1,8 (14:55)0,0 l/m²70%1022,21,6 km/h (1 Bft) O-NO29,0 km/h (5 Bft) NO (17:05)
Lindau-Stadt412 m04:35-1,4-1,4 (07:25)1,2 (14:55)0,0 l/m²74%1022,34,8 km/h (1 Bft) NO33,8 km/h (5 Bft) N-NO (15:40)
Maierhöfen im Allgäu733 m04:35-2,7-2,7 (04:25)-1,2 (01:35)0,0 l/m²74%1022,50,0 km/h (0 Bft) O-NO25,7 km/h (4 Bft) O-SO (02:05)
Maselheim543 m04:35-3,9-4,4 (06:40)-2,3 (13:20)0,0 l/m²84%1023,60,0 km/h (0 Bft) S-SW24,1 km/h (4 Bft) O-NO (15:20)
Maselheim-Sulmingen548 m04:35-4,4-4,6 (06:40)-2,2 (15:15)0,0 l/m²88%1024,93,2 km/h (1 Bft) N20,9 km/h (4 Bft) N-NO (12:15)
Mietingen-Baltringen528 m04:35-4,1-4,2 (04:35)-1,3 (00:45)0,0 l/m²84%1025,10,0 km/h (0 Bft) O-NO4,8 km/h (1 Bft) N-NO (01:20)
Mindelheim-Apfeltrach620 m04:36-4,8-4,8 (04:28)-2,7 (00:00)0,0 l/m²86%1024,00,0 km/h (0 Bft) NO0,0 km/h (0 Bft) O-NO (00:00)
Mittelbiberach577 m04:36-4,2-4,2 (04:35)-1,0 (00:16)0,0 l/m²82%1024,40,0 km/h (0 Bft) NO11,2 km/h (2 Bft) NO (01:21)
Neresheim552 m04:00-5,5-5,5 (04:00)-2,0 (00:00)0,0 l/m²85%1022,70,0 km/h (0 Bft) O4,0 km/h (1 Bft) NO (01:00)
Neukirch570 m04:35-2,3-2,7 (05:25)-0,9 (14:35)0,0 l/m²79%1022,59,7 km/h (2 Bft) N-NO37,0 km/h (5 Bft) N-NO (11:55)
Ochsenhausen, Birkenstraße613 m04:35-4,6-4,6 (07:10)-2,2 (12:50)0,0 l/m²80%1023,70,0 km/h (0 Bft) SO3,2 km/h (1 Bft) S-SW (07:05)
Ochsenhausen, Unt. Wiesen575 m04:35-5,1-5,1 (04:35)-2,4 (00:00)0,0 l/m²86%1025,01,6 km/h (1 Bft) NO4,8 km/h (1 Bft) NO (00:00)
Opfenbach-Göritz561 m04:36-4,6-5,1 (03:56)-2,8 (00:00)0,0 l/m²79%1020,73,2 km/h (1 Bft) O-NO6,5 km/h (2 Bft) O-NO (00:18)
Ostrach619 m04:35-3,4-3,8 (04:15)-0,6 (00:00)0,0 l/m²87%1021,63,2 km/h (1 Bft) N-NO4,8 km/h (1 Bft) NO (00:00)
Ravensburg, Goethestraße428 m04:35-0,8-0,8 (04:35)1,3 (00:00)0,0 l/m²76%1022,26,4 km/h (2 Bft) O-NO14,5 km/h (3 Bft) O-NO (02:45)
Ravensburg-Wernsreute511 m04:35-2,1-2,1 (06:15)0,0 (15:50)0,0 l/m²78%1025,117,7 km/h (3 Bft) N35,4 km/h (5 Bft) N-NO (11:45)
Reichenbach an der Fils343 m04:35-1,6-1,6 (04:10)1,0 (00:00)0,0 l/m²76%1026,03,2 km/h (1 Bft) O-NO11,3 km/h (2 Bft) O (01:20)
Riedlingen530 m04:35-2,6-2,6 (04:30)-1,0 (00:00)0,0 l/m²80%1023,40,0 km/h (0 Bft) NO0,0 km/h (0 Bft) N (00:00)
Rißtissen489 m04:35-2,4-2,4 (04:35)-0,2 (00:00)0,0 l/m²84%1020,90,0 km/h (0 Bft) O-NO8,0 km/h (2 Bft) O-NO (03:30)
Rottweil-Hausen681 m04:38-4,1-4,1 (04:29)-1,9 (00:00)0,0 l/m²81%1023,93,2 km/h (1 Bft) N-NO6,5 km/h (2 Bft) NO (02:14)
Schemmerhofen520 m04:352,72,7 (00:00)2,7 (00:00)0,0 l/m²55%1022,30,0 km/h (0 Bft) NO0,0 km/h (0 Bft) NO (00:00)
Silbertal im Montafon (AT)884 m04:35-3,8-3,8 (04:24)-1,6 (00:01)0,0 l/m²85%1026,00,0 km/h (0 Bft) O-NO0,0 km/h (0 Bft) O-NO (00:00)
Tettnang466 m04:39-0,7-0,7 (04:19)1,0 (00:00)0,0 l/m²70%1022,34,7 km/h (1 Bft) O-NO16,2 km/h (3 Bft) O-SO (01:07)
Tuttlingen648 m04:31-3,6-3,7 (04:26)-2,1 (00:01)0,0 l/m²74%1024,13,1 km/h (1 Bft) W-SW5,2 km/h (1 Bft) W-SW (03:26)
Tuttlingen, Möhringer-Vorstadt711 m04:35-4,0-4,1 (07:10)-2,4 (16:05)0,0 l/m²82%1023,29,7 km/h (2 Bft) O25,7 km/h (4 Bft) N-NW (12:35)
Ummendorf547 m04:35-3,2-3,2 (04:35)-0,7 (00:10)0,0 l/m²65%1024,30,0 km/h (0 Bft) O16,1 km/h (3 Bft) O (01:05)
Ummendorf-Fischbach558 m04:35-3,9-4,3 (03:55)-1,9 (01:25)0,0 l/m²67%1024,00,0 km/h (0 Bft) SO4,8 km/h (1 Bft) O (04:20)
Waldburg707 m04:35-2,2-2,2 (04:20)-0,8 (00:00)0,0 l/m²76%1022,112,9 km/h (3 Bft) N19,3 km/h (3 Bft) N (02:35)
Waltenhofen im Allgäu720 m04:35-6,7-6,7 (04:25)-2,2 (01:05)0,0 l/m²87%1023,10,0 km/h (0 Bft) N-NW17,7 km/h (3 Bft) N-NW (11:50)
Wangen, Südring548 m04:35-2,9-2,9 (04:30)-0,3 (00:00)0,0 l/m²82%1022,23,2 km/h (1 Bft) NO13,0 km/h (3 Bft) NO (01:25)
Warthausen-Birkenhard581 m04:39-3,4-3,4 (03:48)-1,2 (00:00)0,0 l/m²83%1023,58,6 km/h (2 Bft) N11,9 km/h (3 Bft) N-NO (02:49)
Winterlingen785 m04:30-5,2-5,3 (04:15)-2,8 (01:00)0,0 l/m²84%1023,01,8 km/h (1 Bft) N3,6 km/h (1 Bft) NO (00:55)

Werbung
niederschlagsdatenbank | info | login - erfassung

Sollten Sie Interesse haben, an der Niederschlagsdatenbank teilzunehmen, finden Sie > hier < weitere Informationen.

Niederschlagsdaten der Station Eberhardzell - Lilienweg

Jürgen und Klara Hopp

Niederschlagsstation aufgenommen ins Stationsnetz der Wetterwarte Süd am 03.10.2010
Monat: .
Anmerkung:0,0 = nicht messbarer Niederschlag
 -  = kein Niederschlag

Stationsdaten

Höhe

595 m

Lage

Auf Google Maps ansehen

Beschreibung

Die Niederschlagsstation steht in unserem Garten in einem Baugebiet am nördlichen Ortsrand von Eberhardzell.
< Februar 2019April 2019 >

März 2019

TagNiederschlagBemerkung
01.6,8
02.-
03.-
04.-
05.-
06.-
07.-
08.-
09.2,9
Regen
10.2,7
11.1,1
12.-
13.9,0
Regen
14.5,3
Regen
15.10,9
16.-
17.5,1
Schnee
18.2,4
19.-
20.-
21.-
22.-
23.-
24.-
25.2,1
26.-
Schneehöhe: 1,0 cm
27.-
28.-
29.-
30.-
31.-
Gesamt:48,3 
Die Spalten "Tag" und "Niederschlag" lassen sich durch Klicken auf den Spaltenkopf sortieren.
Die Angaben sind in l/m².

< Februar 2019April 2019 >


Monats- und Jahresniederschlag


Wetterbeobachtungen Legende:

  • Regen
  • Nieselregen
  • Schneeregen
  • Schnee
  • Graupel
  • Eiskörner
  • Hagel
  • Bodennebel
  • Gewitter
  • Nebelnässe
  • Schneegriesel

Grafische Darstellung der Niederschläge der Station Eberhardzell März 2019

 
wetterstationen
wetterstationen
- derzeit 83 Stationen
niederschlagsdatenbank
wetterstationen
- kartographische Darstellung
niederschlagsdatenbank
niederschlagsstationen
- derzeit 112 Stationen
niederschlagsdatenbank
niederschlagsstationen
- kartographische Darstellung
 
  treffpunkt & service
--- Anzeigen --------------------------------
zugriffe:
insgesamt: 46.623.040
aktueller monat: 229
heute: 229
momentan online: 4
 
 
monatshöchstwert: 653.625
vorheriger monat: 364.213
gestern: 13.565
tageshöchstwert: 57.073
 
wetterwarte süd
 
konradstraße 3
info@wetterwarte-sued.com
roland roth
 
88427 bad schussenried